sat.trackr.live / text

‹ back to catalog

STARLINK-34159

NORAD 63952 · 2025-099A

PAYLOAD ACTIVE UNKNOWN

§ Identity

Operator
Country
US
Launch date
2025-05-13
Launch site
AFETR
Launch vehicle
Mass (kg)
RCS (m²)

Purposes: comms

External: N2YO · Heavens-Above · Gunter

§ Orbital elements

Epoch: 2026-05-25T04:42:34.989120Z

Period
94.27 min
Inclination
43.0005°
Eccentricity
0.0001021
Mean motion
15.27589554 rev/d
Perigee alt
482.3 km
Apogee alt
483.7 km
Semi-major
6,861.2 km
B*
3.8036e-4
RAAN
104.4460°
Arg perigee
264.1722°
Mean anomaly
95.9013°
Rev number
5,902

§ Raw data

STARLINK-341591 63952U 25099A   26145.19623830  .00010222  00000+0  38036-3 0  99992 63952  43.0005 104.4460 0001021 264.1722  95.9013 15.27589554 59020

JSON: /api/v1/satellites/63952 · /tle

For live sub-satellite position, see the globe view (requires WebGL).

§ Visibility from observer

Set your observer location to see the next 7 days of passes ≥ 10°. The values pass through the URL so the page stays shareable.

No JS? Fill the form by hand. The geolocation button needs JavaScript.